Weather History for Great Bend, KS

Change the Weather History Date:

Sunday, February 26, 2012

  Actual Average Record
Temperature  
Mean Temperature 40 °F -  
Max Temperature 57 °F 55 °F 41 °F (2014)
Min Temperature 24 °F 29 °F 1 °F (2014)
Degree Days  
Heating Degree Days 24    
Moisture  
Dew Point 10 °F    
Average Humidity 31    
Maximum Humidity 69    
Minimum Humidity 13    
Precipitation  
Precipitation 0.00 in - - ()
Sea Level Pressure  
Sea Level Pressure 30.00 in    
Wind  
Wind Speed 14 mph (NW)    
Max Wind Speed 29 mph    
Max Gust Speed 33 mph    
Visibility 10 miles    
Events      
Averages and records for this station are not official NWS values.
T = Trace of Precipitation, MM = Missing Value Source: NWS Daily Summary

Daily Weather History Graph

Daily Weather History Graph

Search for Another Location

Airport:

Trip Planner

Search our weather history database for the weather conditions in past years. The results will help you decide how hot, cold, wet, or windy it might be!

Date:

Astronomy

Feb. 26, 2012 Rise Set
Actual Time 7:12 AM CST 6:25 PM CST
Civil Twilight 6:45 AM CST 6:51 PM CST
Nautical Twilight 6:14 AM CST 7:22 PM CST
Astronomical Twilight 5:44 AM CST 7:53 PM CST
Moon 9:12 AM CST (2/26) 11:19 PM CST (2/26)
Length of Visible Light 12h 06m
Length of Day
11h 12m
Waxing Crescent, 21% of the Moon is Illuminated
Feb 26
Waxing Crescent
Feb 29
First Quarter
Mar 8
Full
Mar 14
Last Quarter
Mar 22
New

Hourly Weather History & Observations

Time (CST) Temp. Windchill Dew Point Humidity Pressure Visibility Wind Dir Wind Speed Gust Speed Precip Events Conditions
12:35 AM 50.0 °F - 15.8 °F 26% 29.70 in 10.0 mi SSW 28.8 mph 33.4 mph N/A   Clear
12:55 AM 48.2 °F - 17.6 °F 30% 29.71 in 10.0 mi SSW 23.0 mph 33.4 mph N/A   Clear
1:15 AM 48.2 °F - 17.6 °F 30% 29.76 in 10.0 mi SW 19.6 mph 29.9 mph N/A   Clear
1:35 AM 48.2 °F - 17.6 °F 30% 29.82 in 10.0 mi West 17.3 mph 24.2 mph N/A   Clear
1:55 AM 46.4 °F 41.1 °F 19.4 °F 34% 29.82 in 10.0 mi WSW 11.5 mph - N/A   Clear
2:15 AM 42.8 °F 37.5 °F 19.4 °F 39% 29.82 in 10.0 mi WSW 9.2 mph - N/A   Clear
2:35 AM 39.2 °F 33.6 °F 19.4 °F 45% 29.83 in 10.0 mi West 8.1 mph - N/A   Clear
2:55 AM 35.6 °F 30.7 °F 17.6 °F 48% 29.84 in 10.0 mi WNW 5.8 mph - N/A   Clear
3:35 AM 33.8 °F 27.0 °F 17.6 °F 52% 29.85 in 10.0 mi NW 8.1 mph - N/A   Clear
3:55 AM 33.8 °F 27.7 °F 15.8 °F 48% 29.85 in 10.0 mi NW 6.9 mph - N/A   Clear
4:15 AM 30.2 °F 22.6 °F 15.8 °F 55% 29.86 in 10.0 mi WNW 8.1 mph - N/A   Clear
4:35 AM 28.4 °F 20.4 °F 15.8 °F 59% 29.86 in 10.0 mi WNW 8.1 mph - N/A   Clear
4:55 AM 30.2 °F 21.9 °F 17.6 °F 60% 29.87 in 10.0 mi WNW 9.2 mph - N/A   Clear
5:15 AM 28.4 °F 20.4 °F 15.8 °F 59% 29.88 in 10.0 mi West 8.1 mph - N/A   Clear
5:55 AM 28.4 °F 20.4 °F 15.8 °F 59% 29.90 in 10.0 mi WSW 8.1 mph - N/A   Overcast
6:15 AM 26.6 °F 20.0 °F 14.0 °F 59% 29.91 in 10.0 mi West 5.8 mph - N/A   Overcast
6:35 AM 24.8 °F 19.1 °F 15.8 °F 69% 29.91 in 10.0 mi West 4.6 mph - N/A   Mostly Cloudy
6:55 AM 26.6 °F 19.1 °F 15.8 °F 64% 29.92 in 10.0 mi WNW 6.9 mph - N/A   Partly Cloudy
7:55 AM 30.2 °F 21.9 °F 17.6 °F 60% 29.95 in 10.0 mi WNW 9.2 mph - N/A   Clear
8:15 AM 33.8 °F 27.7 °F 19.4 °F 56% 29.97 in 10.0 mi WNW 6.9 mph - N/A   Clear
8:55 AM 39.2 °F 35.0 °F 19.4 °F 45% 29.98 in 10.0 mi WNW 5.8 mph - N/A   Clear
9:15 AM 42.8 °F 39.3 °F 19.4 °F 39% 29.98 in 10.0 mi NW 5.8 mph - N/A   Clear
9:35 AM 46.4 °F 42.4 °F 17.6 °F 32% 29.99 in 10.0 mi NNW 8.1 mph - N/A   Clear
9:55 AM 48.2 °F - 10.4 °F 22% 29.99 in 10.0 mi NW 12.7 mph 17.3 mph N/A   Clear
10:15 AM 50.0 °F - 10.4 °F 20% 29.98 in 10.0 mi NNW 18.4 mph 23.0 mph N/A   Clear
10:35 AM 51.8 °F - 6.8 °F 16% 29.99 in 10.0 mi NNW 19.6 mph 24.2 mph N/A   Clear
10:55 AM 51.8 °F - 5.0 °F 15% 29.99 in 10.0 mi NNW 17.3 mph 25.3 mph N/A   Clear
11:15 AM 51.8 °F - 6.8 °F 16% 30.00 in 10.0 mi NNW 20.7 mph 24.2 mph N/A   Clear
11:35 AM 51.8 °F - 6.8 °F 16% 30.00 in 10.0 mi NNW 19.6 mph 26.5 mph N/A   Clear
11:55 AM 53.6 °F - 5.0 °F 14% 30.00 in 10.0 mi NNW 20.7 mph 26.5 mph N/A   Clear
12:15 PM 53.6 °F - 5.0 °F 14% 30.01 in 10.0 mi North 20.7 mph 26.5 mph N/A   Clear
12:35 PM 53.6 °F - 6.8 °F 15% 30.00 in 10.0 mi North 18.4 mph 26.5 mph N/A   Clear
12:55 PM 55.4 °F - 5.0 °F 13% 30.00 in 10.0 mi North 15.0 mph 24.2 mph N/A   Clear
1:15 PM 55.4 °F - 6.8 °F 14% 30.00 in 10.0 mi North 17.3 mph 24.2 mph N/A   Clear
1:35 PM 55.4 °F - 6.8 °F 14% 29.99 in 10.0 mi NNW 18.4 mph - N/A   Clear
1:55 PM 55.4 °F - 6.8 °F 14% 29.99 in 10.0 mi North 16.1 mph 26.5 mph N/A   Clear
2:15 PM 55.4 °F - 6.8 °F 14% 29.99 in 10.0 mi NNW 19.6 mph 27.6 mph N/A   Clear
2:35 PM 55.4 °F - 6.8 °F 14% 29.99 in 10.0 mi NW 15.0 mph 20.7 mph N/A   Clear
2:55 PM 55.4 °F - 6.8 °F 14% 30.00 in 10.0 mi NNW 17.3 mph 27.6 mph N/A   Clear
3:15 PM 57.2 °F - 6.8 °F 13% 30.00 in 10.0 mi NNW 12.7 mph 23.0 mph N/A   Clear
3:35 PM 57.2 °F - 6.8 °F 13% 30.00 in 10.0 mi North 15.0 mph 20.7 mph N/A   Clear
3:55 PM 57.2 °F - 6.8 °F 13% 30.01 in 10.0 mi North 16.1 mph 23.0 mph N/A   Clear
4:15 PM 55.4 °F - 5.0 °F 13% 30.01 in 10.0 mi NW 17.3 mph 25.3 mph N/A   Clear
4:35 PM 55.4 °F - 5.0 °F 13% 30.02 in 10.0 mi NNW 18.4 mph 26.5 mph N/A   Clear
4:55 PM 55.4 °F - 5.0 °F 13% 30.03 in 10.0 mi NNW 17.3 mph 24.2 mph N/A   Clear
5:15 PM 53.6 °F - 5.0 °F 14% 30.04 in 10.0 mi NNW 18.4 mph 23.0 mph N/A   Clear
5:35 PM 53.6 °F - 3.2 °F 13% 30.06 in 10.0 mi NNW 13.8 mph - N/A   Clear
5:55 PM 51.8 °F - 3.2 °F 14% 30.07 in 10.0 mi NNW 13.8 mph - N/A   Clear
6:15 PM 50.0 °F - 3.2 °F 15% 30.09 in 10.0 mi NNW 11.5 mph - N/A   Clear
6:35 PM 46.4 °F 42.4 °F 3.2 °F 17% 30.10 in 10.0 mi NNW 8.1 mph - N/A   Clear
6:55 PM 42.8 °F 38.0 °F 3.2 °F 19% 30.12 in 10.0 mi NNW 8.1 mph - N/A   Clear
7:15 PM 42.8 °F 38.0 °F 6.8 °F 23% 30.13 in 10.0 mi NNW 8.1 mph - N/A   Clear
7:35 PM 37.4 °F 34.9 °F 5.0 °F 26% 30.14 in 10.0 mi NNE 3.5 mph - N/A   Clear
7:55 PM 39.2 °F 34.2 °F 6.8 °F 26% 30.15 in 10.0 mi North 6.9 mph - N/A   Clear
8:15 PM 35.6 °F 30.7 °F 5.0 °F 28% 30.16 in 10.0 mi North 5.8 mph - N/A   Clear
8:35 PM 33.8 °F 29.6 °F 6.8 °F 32% 30.17 in 10.0 mi NNW 4.6 mph - N/A   Clear
8:55 PM 30.2 °F 25.4 °F 6.8 °F 37% 30.18 in 10.0 mi NNW 4.6 mph - N/A   Clear
9:15 PM 30.2 °F 25.4 °F 8.6 °F 40% 30.19 in 10.0 mi NW 4.6 mph - N/A   Clear
9:35 PM 30.2 °F 24.3 °F 8.6 °F 40% 30.20 in 10.0 mi NW 5.8 mph - N/A   Clear
9:55 PM 28.4 °F 24.6 °F 8.6 °F 43% 30.21 in 10.0 mi WNW 3.5 mph - N/A   Clear
10:15 PM 26.6 °F - 10.4 °F 51% 30.22 in 10.0 mi Calm Calm - N/A   Clear
10:35 PM 26.6 °F 20.0 °F 8.6 °F 47% 30.22 in 10.0 mi WNW 5.8 mph - N/A   Clear
10:55 PM 28.4 °F 22.2 °F 8.6 °F 43% 30.23 in 10.0 mi NW 5.8 mph - N/A   Clear
11:15 PM 24.8 °F 19.1 °F 6.8 °F 46% 30.24 in 10.0 mi WNW 4.6 mph - N/A   Clear
11:35 PM 26.6 °F 20.0 °F 10.4 °F 51% 30.25 in 10.0 mi WNW 5.8 mph - N/A   Clear
11:55 PM 26.6 °F 20.0 °F 8.6 °F 47% 30.25 in 10.0 mi West 5.8 mph - N/A   Clear